Chennai, India

10:39 AM IST on June 26, 2017 (GMT +0530)
Chennai International

Weather History for VOMM - July, 2013

Change the Weather History Date:

Thursday, July 25, 2013

  Actual Average Record
Temperature  
Mean Temperature 83 °F -  
Max Temperature 86 °F 91 °F 101 °F (2014)
Min Temperature 80 °F 78 °F 77 °F (2008)
Cooling Degree Days 18    
Growing Degree Days 33 (Base 50)    
Moisture  
Dew Point 72 °F    
Average Humidity 67    
Maximum Humidity 89    
Minimum Humidity 58    
Precipitation  
Precipitation 0.00 in 0.18 in - ()
Sea Level Pressure  
Sea Level Pressure 29.64 in    
Wind  
Wind Speed 5 mph ()    
Max Wind Speed 13 mph    
Max Gust Speed -    
Visibility 3.5 miles    
Events      
Averages and records for this station are not official NWS values.
T = Trace of Precipitation, MM = Missing Value Source: Averaged Metar Reports

Daily Weather History Graph

Daily Weather History Graph

Search for Another Location

Airport or City:

Trip Planner

Search our weather history database for the weather conditions in past years. The results will help you decide how hot, cold, wet, or windy it might be!

Date:

Astronomy

Jul. 25, 2013 Rise Set
Actual Time 5:53 AM IST 6:38 PM IST
Civil Twilight 5:30 AM IST 7:00 PM IST
Nautical Twilight 5:03 AM IST 7:27 PM IST
Astronomical Twilight 4:36 AM IST 7:54 PM IST
Moon 8:47 PM IST (7/25) 8:12 AM IST (7/25)
Length of Visible Light 13h 30m
Length of Day
12h 45m
Waning Gibbous, 91% of the Moon is Illuminated
Jul 25
Waning Gibbous
Jul 29
Last Quarter
Aug 7
New
Aug 14
First Quarter
Aug 21
Full

Hourly Weather History & Observations

Time (IST) Temp. Heat Index Dew Point Humidity Pressure Visibility Wind Dir Wind Speed Gust Speed Precip Events Conditions
12:10 AM 80.6 °F 87.1 °F 77.0 °F 89% 29.68 in 3.7 mi Calm Calm - N/A   Mostly Cloudy
12:40 AM 80.6 °F 87.1 °F 77.0 °F 89% 29.68 in 3.7 mi Calm Calm - N/A   Mostly Cloudy
1:10 AM 80.6 °F 86.2 °F 75.2 °F 84% 29.65 in 3.7 mi SW 3.5 mph - N/A   Mostly Cloudy
1:40 AM 80.6 °F 84.6 °F 71.6 °F 74% 29.65 in 3.7 mi West 5.8 mph - N/A   Mostly Cloudy
2:10 AM 80.6 °F 84.6 °F 71.6 °F 74% 29.65 in 3.7 mi WSW 4.6 mph - N/A   Mostly Cloudy
2:30 AM 81 °F - 72 °F 67% 29.69 in 2 mi Calm Calm - -   Overcast
2:40 AM 80.6 °F 83.9 °F 69.8 °F 70% 29.65 in 3.7 mi West 4.6 mph - N/A   Mostly Cloudy
3:10 AM 82.4 °F 86.3 °F 69.8 °F 66% 29.65 in 3.7 mi WSW 5.8 mph - N/A   Mostly Cloudy
3:40 AM 82.4 °F 86.3 °F 69.8 °F 66% 29.65 in 3.7 mi SW 5.8 mph - N/A   Mostly Cloudy
4:10 AM 82.4 °F 85.4 °F 68.0 °F 62% 29.65 in 3.7 mi WSW 6.9 mph - N/A   Mostly Cloudy
4:40 AM 82.4 °F 85.4 °F 68.0 °F 62% 29.65 in 3.7 mi SW 9.2 mph - N/A   Mostly Cloudy
5:10 AM 82.4 °F 85.4 °F 68.0 °F 62% 29.65 in 3.7 mi SW 9.2 mph - N/A   Mostly Cloudy
5:30 AM 82 °F - 70 °F 59% 29.68 in 2 mi SW 3.5 mph - -   Overcast
5:40 AM 82.4 °F 85.4 °F 68.0 °F 62% 29.65 in 3.7 mi SW 6.9 mph - N/A   Mostly Cloudy
6:10 AM 80.6 °F 83.9 °F 69.8 °F 70% 29.65 in 3.7 mi SW 4.6 mph - N/A   Mostly Cloudy
6:40 AM 82.4 °F 85.4 °F 68.0 °F 62% 29.65 in 3.7 mi SSW 6.9 mph - N/A   Overcast
7:10 AM 80.6 °F 83.9 °F 69.8 °F 70% 29.68 in 3.7 mi SSW 3.5 mph - N/A   Mostly Cloudy
7:40 AM 82.4 °F 86.3 °F 69.8 °F 66% 29.68 in 2.5 mi SSW 3.5 mph - N/A   Haze
8:10 AM 82.4 °F 87.2 °F 71.6 °F 70% 29.71 in 2.5 mi South 5.8 mph - N/A   Haze
8:40 AM 82.4 °F 87.2 °F 71.6 °F 70% 29.71 in 2.5 mi SSW 4.6 mph - N/A   Haze
9:10 AM 82.4 °F 87.2 °F 71.6 °F 70% 29.71 in 2.5 mi SSW 8.1 mph - N/A   Haze
9:40 AM 82.4 °F 87.2 °F 71.6 °F 70% 29.71 in 2.5 mi SSW 5.8 mph - N/A   Haze
10:40 AM 86.0 °F 91.8 °F 71.6 °F 62% 29.68 in 3.7 mi SW 12.7 mph - N/A   Mostly Cloudy
11:10 AM 86.0 °F 90.4 °F 69.8 °F 58% 29.68 in 3.7 mi SSW 10.4 mph - N/A   Mostly Cloudy
11:40 AM 86.0 °F 90.4 °F 69.8 °F 58% 29.68 in 3.7 mi SW 11.5 mph - N/A   Mostly Cloudy
12:10 PM 86.0 °F 90.4 °F 69.8 °F 58% 29.65 in 3.7 mi SSW 12.7 mph - N/A   Mostly Cloudy
12:40 PM 86.0 °F 90.4 °F 69.8 °F 58% 29.65 in 3.7 mi SW 10.4 mph - N/A   Mostly Cloudy
1:10 PM 86.0 °F 91.8 °F 71.6 °F 62% 29.65 in 3.7 mi SSW 9.2 mph - N/A   Mostly Cloudy
1:40 PM 86.0 °F 91.8 °F 71.6 °F 62% 29.62 in 4.3 mi SW 10.4 mph - N/A   Mostly Cloudy
2:10 PM 86.0 °F 91.8 °F 71.6 °F 62% 29.62 in 4.3 mi SSW 11.5 mph - N/A   Mostly Cloudy
2:30 PM 85 °F - 73 °F 61% 29.65 in 6 mi SSW 3.5 mph - -   Overcast
2:40 PM 86.0 °F 91.8 °F 71.6 °F 62% 29.59 in 4.3 mi SSW 8.1 mph - N/A   Mostly Cloudy
3:10 PM 86.0 °F 91.8 °F 71.6 °F 62% 29.59 in 3.7 mi South 8.1 mph - N/A   Mostly Cloudy
3:40 PM 86.0 °F 91.8 °F 71.6 °F 62% 29.59 in 3.7 mi SSW 9.2 mph - N/A   Mostly Cloudy
4:10 PM 87.8 °F 93.8 °F 71.6 °F 58% 29.59 in 3.7 mi SSW 10.4 mph - N/A   Mostly Cloudy
4:40 PM 86.0 °F 91.8 °F 71.6 °F 62% 29.56 in 3.7 mi South 9.2 mph - N/A   Mostly Cloudy
5:10 PM 86.0 °F 91.8 °F 71.6 °F 62% 29.56 in 3.7 mi South 6.9 mph - N/A   Mostly Cloudy
5:30 PM 85 °F - 73 °F 61% 29.61 in 2 mi SSE 3.5 mph - -   Partly Cloudy
5:40 PM 86.0 °F 91.8 °F 71.6 °F 62% 29.56 in 3.7 mi South 6.9 mph - N/A   Mostly Cloudy
6:10 PM 86.0 °F 91.8 °F 71.6 °F 62% 29.56 in 3.7 mi SSE 9.2 mph - N/A   Mostly Cloudy
6:40 PM 84.2 °F 90.9 °F 73.4 °F 70% 29.59 in 3.7 mi South 6.9 mph - N/A   Mostly Cloudy
7:10 PM 84.2 °F 90.9 °F 73.4 °F 70% 29.59 in 3.7 mi South 8.1 mph - N/A   Mostly Cloudy
7:40 PM 84.2 °F 90.9 °F 73.4 °F 70% 29.59 in 3.7 mi South 10.4 mph - N/A   Mostly Cloudy
8:10 PM 84.2 °F 92.3 °F 75.2 °F 74% 29.62 in 3.7 mi South 8.1 mph - N/A   Mostly Cloudy
8:30 PM 83 °F - 77 °F 77% 29.65 in 2 mi SW 4.6 mph - -   Partly Cloudy
8:40 PM 82.4 °F 89.5 °F 75.2 °F 79% 29.62 in 3.7 mi SSW 9.2 mph - N/A   Mostly Cloudy
9:10 PM 82.4 °F 90.9 °F 77.0 °F 84% 29.62 in 3.7 mi South 8.1 mph - N/A   Mostly Cloudy
9:40 PM 82.4 °F 90.9 °F 77.0 °F 84% 29.62 in 3.7 mi South 5.8 mph - N/A   Mostly Cloudy
10:10 PM 82.4 °F 89.5 °F 75.2 °F 79% 29.65 in 3.7 mi SSW 5.8 mph - N/A   Mostly Cloudy
10:40 PM 84.2 °F 88.4 °F 69.8 °F 62% 29.65 in 3.7 mi SW 9.2 mph - N/A   Mostly Cloudy
11:10 PM 84.2 °F 87.3 °F 68.0 °F 58% 29.65 in 3.7 mi WSW 9.2 mph - N/A   Mostly Cloudy
11:30 PM 83 °F - 74 °F 67% 29.67 in 2 mi West 6.9 mph - -   Scattered Clouds
11:40 PM 84.2 °F 87.3 °F 68.0 °F 58% 29.65 in 3.7 mi WSW 8.1 mph - N/A   Mostly Cloudy